29-05-2022, 00:00:03,     81,    0.0,    7.5,   0.00,   0.00, 1019.1,   62.8, -999.0
29-05-2022, 00:00:13,     81,    0.0,    7.5,   0.00,   0.00, 1019.1,   63.1, -999.0
29-05-2022, 00:00:23,     81,    0.0,    7.5,   0.00,   0.00, 1019.1,   63.3, -999.0
29-05-2022, 00:00:33,     81,    0.0,    7.5,   0.00,   0.00, 1019.1,   63.2, -999.0
29-05-2022, 00:00:43,     81,    0.0,    7.4,   0.00,   0.00, 1019.1,   63.3, -999.0
29-05-2022, 00:00:53,     81,    0.0,    7.5,   0.00,   0.00, 1019.1,   63.4, -999.0
29-05-2022, 00:01:03,     81,    0.0,    7.5,   0.00,   0.00, 1019.1,   63.3, -999.0
29-05-2022, 00:01:13,     81,    0.0,    7.6,   0.00,   0.00, 1019.1,   63.5, -999.0
29-05-2022, 00:01:22,     38,    0.4,    7.5,   0.00,   0.00, 1019.2,   63.4, -999.0
29-05-2022, 00:01:33,     37,    0.3,    7.6,   0.00,   0.00, 1019.2,   63.1, -999.0
29-05-2022, 00:01:43,     37,    0.0,    7.3,   0.00,   0.00, 1019.1,   63.1, -999.0
29-05-2022, 00:01:52,     37,    0.0,    7.4,   0.00,   0.00, 1019.1,   63.2, -999.0
29-05-2022, 00:02:02,     37,    0.0,    7.4,   0.00,   0.00, 1019.1,   63.7, -999.0
29-05-2022, 00:02:13,     38,    0.0,    7.5,   0.00,   0.00, 1019.1,   63.9, -999.0
29-05-2022, 00:02:22,     37,    0.0,    7.5,   0.00,   0.00, 1019.1,   63.9, -999.0
29-05-2022, 00:02:32,     37,    0.0,    7.5,   0.00,   0.00, 1019.1,   63.7, -999.0
29-05-2022, 00:02:42,     37,    0.0,    7.5,   0.00,   0.00, 1019.1,   63.6, -999.0
29-05-2022, 00:02:52,     37,    0.0,    7.5,   0.00,   0.00, 1019.1,   63.8, -999.0
29-05-2022, 00:03:02,     37,    0.0,    7.5,   0.00,   0.00, 1019.1,   63.7, -999.0
29-05-2022, 00:03:12,     38,    0.0,    7.5,   0.00,   0.00, 1019.1,   63.9, -999.0
29-05-2022, 00:03:22,     37,    0.0,    7.5,   0.00,   0.00, 1019.0,   63.8, -999.0
29-05-2022, 00:03:34,     37,    0.0,    7.4,   0.00,   0.00, 1019.0,   63.7, -999.0
29-05-2022, 00:03:42,     37,    0.0,    7.5,   0.00,   0.00, 1019.0,   63.6, -999.0
29-05-2022, 00:03:52,     37,    0.0,    7.4,   0.00,   0.00, 1019.0,   63.6, -999.0
29-05-2022, 00:04:02,     37,    0.0,    7.5,   0.00,   0.00, 1019.0,   63.5, -999.0
29-05-2022, 00:04:12,     37,    0.0,    7.3,   0.00,   0.00, 1019.0,   63.6, -999.0
29-05-2022, 00:04:22,     38,    0.0,    7.3,   0.00,   0.00, 1019.0,   63.6, -999.0
29-05-2022, 00:04:31,     38,    0.0,    7.3,   0.00,   0.00, 1019.1,   63.7, -999.0
29-05-2022, 00:04:42,     38,    0.0,    7.3,   0.00,   0.00, 1019.0,   63.7, -999.0
29-05-2022, 00:04:52,     38,    0.0,    7.3,   0.00,   0.00, 1019.0,   64.0, -999.0
29-05-2022, 00:05:01,     38,    0.0,    7.4,   0.00,   0.00, 1019.0,   64.1, -999.0
29-05-2022, 00:05:11,     38,    0.0,    7.4,   0.00,   0.00, 1019.0,   64.4, -999.0
29-05-2022, 00:05:22,     38,    0.0,    7.5,   0.00,   0.00, 1019.0,   64.3, -999.0
29-05-2022, 00:05:31,     38,    0.0,    7.4,   0.00,   0.00, 1019.0,   64.1, -999.0
29-05-2022, 00:05:41,     38,    0.0,    7.2,   0.00,   0.00, 1019.0,   63.8, -999.0
29-05-2022, 00:05:51,     37,    0.0,    7.3,   0.00,   0.00, 1019.0,   64.0, -999.0
29-05-2022, 00:06:01,     38,    0.0,    7.4,   0.00,   0.00, 1019.0,   64.2, -999.0
29-05-2022, 00:06:11,     38,    0.0,    7.3,   0.00,   0.00, 1019.0,   64.0, -999.0
29-05-2022, 00:06:21,     38,    0.0,    7.3,   0.00,   0.00, 1019.0,   64.2, -999.0
29-05-2022, 00:06:31,     38,    0.0,    7.3,   0.00,   0.00, 1019.0,   64.3, -999.0
29-05-2022, 00:06:41,     38,    0.0,    7.3,   0.00,   0.00, 1019.0,   64.3, -999.0
29-05-2022, 00:06:51,     38,    0.0,    7.2,   0.00,   0.00, 1019.0,   64.2, -999.0
29-05-2022, 00:07:01,     38,    0.0,    7.2,   0.00,   0.00, 1019.0,   64.2, -999.0
29-05-2022, 00:07:11,     38,    0.0,    7.1,   0.00,   0.00, 1019.0,   64.2, -999.0
29-05-2022, 00:07:21,     38,    0.0,    7.1,   0.00,   0.00, 1019.0,   64.3, -999.0
29-05-2022, 00:07:31,     38,    0.0,    7.1,   0.00,   0.00, 1019.0,   64.3, -999.0
29-05-2022, 00:07:40,     38,    0.0,    7.1,   0.00,   0.00, 1019.0,   64.6, -999.0
29-05-2022, 00:07:51,     38,    0.0,    7.2,   0.00,   0.00, 1019.0,   64.6, -999.0
29-05-2022, 00:08:01,     38,    0.0,    7.1,   0.00,   0.00, 1019.0,   64.6, -999.0
29-05-2022, 00:08:10,     37,    0.0,    7.0,   0.00,   0.00, 1019.0,   64.4, -999.0
29-05-2022, 00:08:21,     38,    0.0,    7.0,   0.00,   0.00, 1019.0,   64.4, -999.0
29-05-2022, 00:08:30,     38,    0.0,    7.0,   0.00,   0.00, 1019.0,   64.5, -999.0
29-05-2022, 00:08:40,     38,    0.0,    7.0,   0.00,   0.00, 1019.0,   64.8, -999.0
29-05-2022, 00:08:50,     38,    0.0,    7.1,   0.00,   0.00, 1019.0,   64.9, -999.0
29-05-2022, 00:09:00,     38,    0.0,    7.1,   0.00,   0.00, 1019.0,   65.0, -999.0
29-05-2022, 00:09:10,     38,    0.0,    7.0,   0.00,   0.00, 1019.0,   64.8, -999.0
29-05-2022, 00:09:20,     38,    0.0,    7.1,   0.00,   0.00, 1019.0,   65.0, -999.0
29-05-2022, 00:09:30,     38,    0.0,    7.2,   0.00,   0.00, 1019.0,   65.2, -999.0
29-05-2022, 00:09:40,     38,    0.0,    7.1,   0.00,   0.00, 1019.0,   65.1, -999.0
29-05-2022, 00:09:50,     38,    0.0,    7.1,   0.00,   0.00, 1019.0,   65.0, -999.0
29-05-2022, 00:10:00,     38,    0.0,    7.1,   0.00,   0.00, 1019.0,   64.9, -999.0
29-05-2022, 00:10:10,     53,    0.0,    7.2,   0.00,   0.00, 1019.0,   65.1, -999.0
29-05-2022, 00:10:20,     53,    0.0,    7.2,   0.00,   0.00, 1019.0,   65.2, -999.0
29-05-2022, 00:10:30,     53,    0.0,    7.2,   0.00,   0.00, 1019.0,   65.5, -999.0
29-05-2022, 00:10:40,     53,    0.0,    7.3,   0.00,   0.00, 1019.0,   65.3, -999.0
29-05-2022, 00:10:50,     55,    0.0,    7.3,   0.00,   0.00, 1019.0,   65.2, -999.0
29-05-2022, 00:11:00,     55,    0.0,    7.3,   0.00,   0.00, 1019.0,   65.2, -999.0
29-05-2022, 00:11:09,     54,    0.0,    7.3,   0.00,   0.00, 1019.0,   65.1, -999.0
29-05-2022, 00:11:19,     55,    0.0,    7.4,   0.00,   0.00, 1019.0,   65.2, -999.0
29-05-2022, 00:11:30,     55,    0.0,    7.3,   0.00,   0.00, 1019.0,   65.2, -999.0
29-05-2022, 00:11:39,     54,    0.0,    7.4,   0.00,   0.00, 1019.0,   65.1, -999.0
29-05-2022, 00:11:49,     54,    0.0,    7.3,   0.00,   0.00, 1019.0,   65.1, -999.0
29-05-2022, 00:12:00,     55,    0.0,    7.2,   0.00,   0.00, 1019.0,   65.0, -999.0
29-05-2022, 00:12:09,     55,    0.0,    7.3,   0.00,   0.00, 1019.0,   64.9, -999.0
29-05-2022, 00:12:19,     54,    0.0,    7.3,   0.00,   0.00, 1019.0,   64.9, -999.0
29-05-2022, 00:12:29,     54,    0.0,    7.1,   0.00,   0.00, 1019.0,   64.7, -999.0
29-05-2022, 00:12:39,     54,    0.0,    7.2,   0.00,   0.00, 1019.0,   65.0, -999.0
29-05-2022, 00:12:49,     54,    0.0,    7.3,   0.00,   0.00, 1019.0,   65.1, -999.0
29-05-2022, 00:12:59,     54,    0.0,    7.3,   0.00,   0.00, 1019.0,   65.0, -999.0
29-05-2022, 00:13:09,     55,    0.0,    7.1,   0.00,   0.00, 1019.0,   64.9, -999.0
29-05-2022, 00:13:19,     54,    0.0,    7.2,   0.00,   0.00, 1019.0,   65.2, -999.0
29-05-2022, 00:13:29,     54,    0.0,    7.1,   0.00,   0.00, 1019.0,   65.0, -999.0
29-05-2022, 00:13:39,     54,    0.0,    7.2,   0.00,   0.00, 1019.0,   65.0, -999.0
29-05-2022, 00:13:48,     54,    0.0,    7.2,   0.00,   0.00, 1019.0,   65.2, -999.0
29-05-2022, 00:13:59,     54,    0.0,    7.2,   0.00,   0.00, 1019.0,   65.4, -999.0
29-05-2022, 00:14:09,     54,    0.0,    7.2,   0.00,   0.00, 1019.0,   65.4, -999.0
29-05-2022, 00:14:18,     55,    0.0,    7.1,   0.00,   0.00, 1019.0,   65.2, -999.0
29-05-2022, 00:14:28,     54,    0.0,    7.1,   0.00,   0.00, 1019.0,   65.1, -999.0
29-05-2022, 00:14:39,     54,    0.0,    7.1,   0.00,   0.00, 1019.0,   65.2, -999.0
29-05-2022, 00:14:48,     54,    0.0,    7.0,   0.00,   0.00, 1019.0,   65.3, -999.0
29-05-2022, 00:14:58,     54,    0.0,    7.1,   0.00,   0.00, 1019.0,   65.6, -999.0
29-05-2022, 00:15:08,     54,    0.0,    7.1,   0.00,   0.00, 1018.9,   65.5, -999.0
29-05-2022, 00:15:18,     54,    0.0,    7.0,   0.00,   0.00, 1018.9,   65.4, -999.0
29-05-2022, 00:15:28,     55,    0.0,    6.9,   0.00,   0.00, 1018.9,   65.4, -999.0
29-05-2022, 00:15:38,     54,    0.0,    7.0,   0.00,   0.00, 1018.9,   65.5, -999.0
29-05-2022, 00:15:48,     55,    0.0,    7.0,   0.00,   0.00, 1018.9,   65.4, -999.0
29-05-2022, 00:15:58,     54,    0.0,    7.0,   0.00,   0.00, 1019.0,   65.4, -999.0
29-05-2022, 00:16:08,     54,    0.0,    6.9,   0.00,   0.00, 1018.9,   65.3, -999.0
29-05-2022, 00:16:18,     54,    0.0,    6.8,   0.00,   0.00, 1018.9,   65.5, -999.0
29-05-2022, 00:16:28,     54,    0.0,    7.0,   0.00,   0.00, 1018.9,   65.6, -999.0
29-05-2022, 00:16:38,     49,    0.1,    7.0,   0.00,   0.00, 1019.0,   65.9, -999.0
29-05-2022, 00:16:48,     45,    0.3,    7.1,   0.00,   0.00, 1019.0,   66.1, -999.0
29-05-2022, 00:16:57,     41,    0.1,    7.1,   0.00,   0.00, 1019.0,   65.9, -999.0
29-05-2022, 00:17:08,     41,    0.0,    7.1,   0.00,   0.00, 1019.0,   65.9, -999.0
29-05-2022, 00:17:18,     42,    0.0,    7.0,   0.00,   0.00, 1018.9,   65.7, -999.0
29-05-2022, 00:17:27,     41,    0.0,    7.0,   0.00,   0.00, 1019.0,   65.8, -999.0
29-05-2022, 00:17:38,     41,    0.2,    6.9,   0.00,   0.00, 1019.0,   65.9, -999.0
29-05-2022, 00:17:47,     41,    0.0,    7.1,   0.00,   0.00, 1018.9,   65.9, -999.0
29-05-2022, 00:17:57,     41,    0.0,    7.0,   0.00,   0.00, 1018.9,   65.9, -999.0
29-05-2022, 00:18:07,     41,    0.0,    7.1,   0.00,   0.00, 1018.9,   66.0, -999.0
29-05-2022, 00:18:17,     41,    0.0,    7.1,   0.00,   0.00, 1019.0,   66.0, -999.0
29-05-2022, 00:18:27,     41,    0.0,    7.0,   0.00,   0.00, 1019.0,   66.0, -999.0
29-05-2022, 00:18:37,     42,    0.1,    7.1,   0.00,   0.00, 1019.1,   66.0, -999.0
29-05-2022, 00:18:47,     41,    0.0,    7.0,   0.00,   0.00, 1018.9,   66.0, -999.0
29-05-2022, 00:18:57,     41,    0.1,    7.0,   0.00,   0.00, 1019.0,   65.8, -999.0
29-05-2022, 00:19:07,     41,    0.0,    7.0,   0.00,   0.00, 1018.9,   65.7, -999.0
29-05-2022, 00:19:17,     41,    0.0,    6.9,   0.00,   0.00, 1018.9,   66.0, -999.0
29-05-2022, 00:19:27,     41,    0.0,    7.0,   0.00,   0.00, 1018.9,   66.1, -999.0
29-05-2022, 00:19:37,     41,    0.2,    7.0,   0.00,   0.00, 1019.0,   66.2, -999.0
29-05-2022, 00:19:47,     41,    0.3,    7.0,   0.00,   0.00, 1019.0,   66.4, -999.0
29-05-2022, 00:19:57,     41,    0.0,    7.0,   0.00,   0.00, 1018.9,   66.0, -999.0
29-05-2022, 00:20:06,     41,    0.0,    7.0,   0.00,   0.00, 1018.9,   66.2, -999.0
29-05-2022, 00:20:17,     41,    0.0,    7.0,   0.00,   0.00, 1018.9,   66.1, -999.0
29-05-2022, 00:20:27,     41,    0.2,    7.0,   0.00,   0.00, 1019.0,   66.2, -999.0
29-05-2022, 00:20:36,     41,    0.2,    7.0,   0.00,   0.00, 1019.0,   66.3, -999.0
29-05-2022, 00:20:47,     41,    0.0,    7.0,   0.00,   0.00, 1018.9,   66.2, -999.0
29-05-2022, 00:20:56,     41,    0.0,    7.0,   0.00,   0.00, 1018.9,   66.3, -999.0
29-05-2022, 00:21:06,     41,    0.0,    6.9,   0.00,   0.00, 1018.9,   66.2, -999.0
29-05-2022, 00:21:16,     42,    0.5,    7.0,   0.00,   0.00, 1019.0,   66.3, -999.0
29-05-2022, 00:21:26,     44,    0.0,    7.0,   0.00,   0.00, 1018.9,   66.4, -999.0
29-05-2022, 00:21:36,     46,    0.0,    7.1,   0.00,   0.00, 1018.9,   66.7, -999.0
29-05-2022, 00:21:46,     45,    0.0,    7.2,   0.00,   0.00, 1018.9,   66.7, -999.0
29-05-2022, 00:21:56,     46,    0.0,    7.2,   0.00,   0.00, 1018.9,   66.4, -999.0
29-05-2022, 00:22:06,     46,    0.0,    7.2,   0.00,   0.00, 1018.8,   66.3, -999.0
29-05-2022, 00:22:16,     81,    0.0,    7.1,   0.00,   0.00, 1018.9,   66.1, -999.0
29-05-2022, 00:22:26,     69,    0.5,    7.3,   0.00,   0.00, 1019.0,   66.2, -999.0
29-05-2022, 00:22:36,     68,    0.0,    7.1,   0.00,   0.00, 1018.9,   66.0, -999.0
29-05-2022, 00:22:46,     68,    0.0,    7.1,   0.00,   0.00, 1018.9,   65.8, -999.0
29-05-2022, 00:22:56,     34,    0.6,    7.1,   0.00,   0.00, 1019.0,   65.9, -999.0
29-05-2022, 00:23:06,     62,    0.7,    7.1,   0.00,   0.00, 1018.9,   65.8, -999.0
29-05-2022, 00:23:16,     62,    0.0,    7.1,   0.00,   0.00, 1018.8,   65.8, -999.0
29-05-2022, 00:23:26,     62,    0.0,    7.2,   0.00,   0.00, 1018.8,   66.1, -999.0
29-05-2022, 00:23:35,     63,    0.0,    7.2,   0.00,   0.00, 1018.9,   66.2, -999.0
29-05-2022, 00:23:45,     62,    0.0,    7.2,   0.00,   0.00, 1018.9,   66.1, -999.0
29-05-2022, 00:23:56,     57,    0.7,    7.4,   0.00,   0.00, 1019.0,   66.3, -999.0
29-05-2022, 00:24:05,     56,    0.7,    7.4,   0.00,   0.00, 1019.0,   66.2, -999.0
29-05-2022, 00:24:15,     56,    0.0,    7.3,   0.00,   0.00, 1018.8,   65.9, -999.0
29-05-2022, 00:24:25,     56,    0.0,    7.3,   0.00,   0.00, 1018.8,   65.6, -999.0
29-05-2022, 00:24:35,     56,    0.4,    7.2,   0.00,   0.00, 1018.9,   65.7, -999.0
29-05-2022, 00:24:45,     55,    1.0,    7.3,   0.00,   0.00, 1019.0,   65.8, -999.0
29-05-2022, 00:24:55,     58,    0.8,    7.2,   0.00,   0.00, 1019.0,   65.7, -999.0
29-05-2022, 00:25:05,     57,    0.2,    7.2,   0.00,   0.00, 1018.9,   65.5, -999.0
29-05-2022, 00:25:15,     54,    0.0,    7.2,   0.00,   0.00, 1018.9,   65.4, -999.0
29-05-2022, 00:25:25,     48,    0.2,    7.1,   0.00,   0.00, 1018.9,   65.4, -999.0
29-05-2022, 00:25:35,     64,    0.0,    7.1,   0.00,   0.00, 1018.8,   65.3, -999.0
29-05-2022, 00:25:45,     64,    0.0,    7.0,   0.00,   0.00, 1018.8,   65.4, -999.0
29-05-2022, 00:25:55,     64,    0.0,    7.0,   0.00,   0.00, 1018.8,   65.5, -999.0
29-05-2022, 00:26:05,     59,    0.1,    7.1,   0.00,   0.00, 1018.9,   65.9, -999.0
29-05-2022, 00:26:14,     59,    0.0,    7.0,   0.00,   0.00, 1018.8,   65.6, -999.0
29-05-2022, 00:26:25,     59,    0.0,    7.1,   0.00,   0.00, 1018.8,   65.7, -999.0
29-05-2022, 00:26:35,     59,    0.0,    7.0,   0.00,   0.00, 1018.8,   65.8, -999.0
29-05-2022, 00:26:44,     59,    0.0,    7.1,   0.00,   0.00, 1018.8,   65.9, -999.0
29-05-2022, 00:26:54,     59,    0.0,    7.0,   0.00,   0.00, 1018.8,   65.9, -999.0
29-05-2022, 00:27:05,     59,    0.0,    7.0,   0.00,   0.00, 1018.8,   65.9, -999.0
29-05-2022, 00:27:14,     59,    0.0,    7.0,   0.00,   0.00, 1018.8,   65.6, -999.0
29-05-2022, 00:27:26,     59,    0.0,    7.0,   0.00,   0.00, 1018.8,   65.7, -999.0
29-05-2022, 00:27:34,     59,    0.0,    6.9,   0.00,   0.00, 1018.8,   65.6, -999.0
29-05-2022, 00:27:44,     59,    0.0,    6.9,   0.00,   0.00, 1018.8,   65.7, -999.0
29-05-2022, 00:27:54,     59,    0.0,    7.0,   0.00,   0.00, 1018.9,   65.8, -999.0
29-05-2022, 00:28:04,     59,    0.0,    6.9,   0.00,   0.00, 1018.8,   66.0, -999.0
29-05-2022, 00:28:14,     59,    0.0,    6.9,   0.00,   0.00, 1018.8,   65.8, -999.0
29-05-2022, 00:28:24,     59,    0.0,    7.0,   0.00,   0.00, 1018.8,   65.8, -999.0
29-05-2022, 00:28:34,     59,    0.0,    6.9,   0.00,   0.00, 1018.8,   65.9, -999.0
29-05-2022, 00:28:44,     59,    0.0,    6.9,   0.00,   0.00, 1018.8,   66.0, -999.0
29-05-2022, 00:28:54,     59,    0.0,    6.9,   0.00,   0.00, 1018.8,   66.1, -999.0
29-05-2022, 00:29:04,     59,    0.0,    6.9,   0.00,   0.00, 1018.8,   66.0, -999.0
29-05-2022, 00:29:14,     59,    0.0,    6.8,   0.00,   0.00, 1018.8,   66.0, -999.0
29-05-2022, 00:29:24,     59,    0.0,    6.8,   0.00,   0.00, 1018.8,   66.1, -999.0
29-05-2022, 00:29:34,     65,    0.0,    6.8,   0.00,   0.00, 1018.8,   66.1, -999.0
29-05-2022, 00:29:44,     59,    0.0,    6.8,   0.00,   0.00, 1018.8,   66.2, -999.0
29-05-2022, 00:29:53,     59,    0.0,    6.8,   0.00,   0.00, 1018.8,   66.2, -999.0
29-05-2022, 00:30:04,     59,    0.0,    6.8,   0.00,   0.00, 1018.8,   66.1, -999.0
29-05-2022, 00:30:13,     58,    0.0,    6.8,   0.00,   0.00, 1018.8,   66.2, -999.0
29-05-2022, 00:30:23,     59,    0.0,    6.8,   0.00,   0.00, 1018.8,   66.2, -999.0
29-05-2022, 00:30:33,     59,    0.0,    6.8,   0.00,   0.00, 1018.8,   66.4, -999.0
29-05-2022, 00:30:43,     59,    0.0,    6.8,   0.00,   0.00, 1018.8,   66.4, -999.0
29-05-2022, 00:30:53,     59,    0.0,    6.8,   0.00,   0.00, 1018.8,   66.4, -999.0
29-05-2022, 00:31:03,     59,    0.0,    6.8,   0.00,   0.00, 1018.8,   66.4, -999.0
29-05-2022, 00:31:13,     59,    0.0,    6.8,   0.00,   0.00, 1018.9,   66.4, -999.0
29-05-2022, 00:31:23,     59,    0.0,    6.8,   0.00,   0.00, 1018.8,   66.4, -999.0
29-05-2022, 00:31:33,     59,    0.0,    6.8,   0.00,   0.00, 1018.8,   66.6, -999.0
29-05-2022, 00:31:43,     59,    0.0,    6.9,   0.00,   0.00, 1018.9,   66.9, -999.0
29-05-2022, 00:31:53,     59,    0.0,    7.0,   0.00,   0.00, 1018.8,   66.7, -999.0
29-05-2022, 00:32:03,     57,    0.0,    6.9,   0.00,   0.00, 1018.8,   66.6, -999.0
29-05-2022, 00:32:13,     59,    0.0,    6.8,   0.00,   0.00, 1018.9,   66.6, -999.0
29-05-2022, 00:32:23,     58,    0.0,    7.0,   0.00,   0.00, 1018.8,   66.5, -999.0
29-05-2022, 00:32:33,     59,    0.0,    6.8,   0.00,   0.00, 1018.8,   66.6, -999.0
29-05-2022, 00:32:43,     58,    0.0,    6.9,   0.00,   0.00, 1018.9,   66.8, -999.0
29-05-2022, 00:32:52,     59,    0.0,    7.0,   0.00,   0.00, 1018.8,   66.8, -999.0
29-05-2022, 00:33:02,     58,    0.0,    6.9,   0.00,   0.00, 1018.9,   66.7, -999.0
29-05-2022, 00:33:13,     59,    0.0,    6.9,   0.00,   0.00, 1018.9,   66.7, -999.0
29-05-2022, 00:33:22,     59,    0.0,    7.0,   0.00,   0.00, 1018.9,   66.7, -999.0
29-05-2022, 00:33:32,     59,    0.0,    6.9,   0.00,   0.00, 1018.9,   66.5, -999.0
29-05-2022, 00:33:43,     59,    0.0,    6.8,   0.00,   0.00, 1018.9,   66.3, -999.0
29-05-2022, 00:33:52,     58,    0.0,    6.8,   0.00,   0.00, 1018.9,   66.4, -999.0
29-05-2022, 00:34:02,     59,    0.0,    6.8,   0.00,   0.00, 1018.9,   66.4, -999.0
29-05-2022, 00:34:12,     59,    0.0,    6.8,   0.00,   0.00, 1018.8,   66.5, -999.0
29-05-2022, 00:34:22,     59,    0.0,    6.8,   0.00,   0.00, 1018.9,   66.6, -999.0
29-05-2022, 00:34:32,     59,    0.0,    6.8,   0.00,   0.00, 1018.9,   66.7, -999.0
29-05-2022, 00:34:42,     58,    0.0,    6.7,   0.00,   0.00, 1018.9,   66.7, -999.0
29-05-2022, 00:34:52,     59,    0.0,    6.7,   0.00,   0.00, 1018.9,   66.7, -999.0
29-05-2022, 00:35:02,     59,    0.0,    6.7,   0.00,   0.00, 1018.9,   66.7, -999.0
29-05-2022, 00:35:12,     58,    0.0,    6.6,   0.00,   0.00, 1018.8,   66.7, -999.0
29-05-2022, 00:35:22,     59,    0.0,    6.6,   0.00,   0.00, 1018.9,   66.8, -999.0
29-05-2022, 00:35:31,     59,    0.0,    6.7,   0.00,   0.00, 1018.8,   66.8, -999.0
29-05-2022, 00:35:42,     59,    0.0,    6.7,   0.00,   0.00, 1018.8,   67.0, -999.0
29-05-2022, 00:35:52,     61,    0.0,    6.7,   0.00,   0.00, 1018.9,   67.1, -999.0
29-05-2022, 00:36:01,     59,    0.0,    6.7,   0.00,   0.00, 1018.8,   67.0, -999.0
29-05-2022, 00:36:12,     59,    0.0,    6.7,   0.00,   0.00, 1018.8,   66.9, -999.0
29-05-2022, 00:36:22,     59,    0.0,    6.7,   0.00,   0.00, 1018.8,   66.8, -999.0
29-05-2022, 00:36:31,     59,    0.0,    6.5,   0.00,   0.00, 1018.9,   66.8, -999.0
29-05-2022, 00:36:41,     58,    0.0,    6.8,   0.00,   0.00, 1018.9,   66.9, -999.0
29-05-2022, 00:36:52,     59,    0.0,    6.6,   0.00,   0.00, 1018.9,   66.9, -999.0
29-05-2022, 00:37:01,     59,    0.0,    6.6,   0.00,   0.00, 1018.9,   67.0, -999.0
29-05-2022, 00:37:11,     58,    0.0,    6.6,   0.00,   0.00, 1018.8,   67.1, -999.0
29-05-2022, 00:37:21,     59,    0.0,    6.7,   0.00,   0.00, 1018.8,   67.2, -999.0
29-05-2022, 00:37:31,     59,    0.0,    6.7,   0.00,   0.00, 1018.8,   67.3, -999.0
29-05-2022, 00:37:41,     59,    0.0,    6.7,   0.00,   0.00, 1018.8,   67.3, -999.0
29-05-2022, 00:37:51,     59,    0.0,    6.7,   0.00,   0.00, 1018.8,   67.1, -999.0
29-05-2022, 00:38:01,     59,    0.0,    6.7,   0.00,   0.00, 1018.8,   67.2, -999.0
29-05-2022, 00:38:11,     59,    0.0,    6.6,   0.00,   0.00, 1018.8,   67.2, -999.0
29-05-2022, 00:38:21,     59,    0.0,    6.7,   0.00,   0.00, 1018.8,   67.2, -999.0
29-05-2022, 00:38:31,     59,    0.0,    6.7,   0.00,   0.00, 1018.8,   67.2, -999.0
29-05-2022, 00:38:41,     59,    0.0,    6.7,   0.00,   0.00, 1018.8,   67.3, -999.0
29-05-2022, 00:38:51,     59,    0.0,    6.7,   0.00,   0.00, 1018.8,   67.1, -999.0
29-05-2022, 00:39:01,     59,    0.0,    6.6,   0.00,   0.00, 1018.8,   67.4, -999.0
29-05-2022, 00:39:10,     59,    0.0,    6.6,   0.00,   0.00, 1018.8,   67.2, -999.0
29-05-2022, 00:39:21,     59,    0.0,    6.7,   0.00,   0.00, 1018.8,   67.3, -999.0
29-05-2022, 00:39:31,     59,    0.0,    6.7,   0.00,   0.00, 1018.8,   67.4, -999.0
29-05-2022, 00:39:40,     59,    0.0,    6.7,   0.00,   0.00, 1018.8,   67.4, -999.0
29-05-2022, 00:39:50,     59,    0.0,    6.7,   0.00,   0.00, 1018.8,   67.4, -999.0
29-05-2022, 00:40:00,     59,    0.0,    6.6,   0.00,   0.00, 1018.8,   67.3, -999.0
29-05-2022, 00:40:10,     59,    0.0,    6.7,   0.00,   0.00, 1018.9,   67.3, -999.0
29-05-2022, 00:40:20,     59,    0.0,    6.6,   0.00,   0.00, 1018.8,   67.5, -999.0
29-05-2022, 00:40:30,     59,    0.0,    6.6,   0.00,   0.00, 1018.8,   67.5, -999.0
29-05-2022, 00:40:40,     59,    0.0,    6.6,   0.00,   0.00, 1018.8,   67.5, -999.0
29-05-2022, 00:40:50,     59,    0.0,    6.6,   0.00,   0.00, 1018.8,   67.4, -999.0
29-05-2022, 00:41:00,     59,    0.0,    6.6,   0.00,   0.00, 1018.8,   67.5, -999.0
29-05-2022, 00:41:10,     59,    0.0,    6.5,   0.00,   0.00, 1018.8,   67.5, -999.0
29-05-2022, 00:41:20,     59,    0.0,    6.5,   0.00,   0.00, 1018.8,   67.5, -999.0
29-05-2022, 00:41:30,     59,    0.0,    6.5,   0.00,   0.00, 1018.8,   67.4, -999.0
29-05-2022, 00:41:40,     59,    0.0,    6.5,   0.00,   0.00, 1018.8,   67.5, -999.0
29-05-2022, 00:41:50,     59,    0.0,    6.6,   0.00,   0.00, 1018.8,   67.6, -999.0
29-05-2022, 00:41:59,     59,    0.0,    6.6,   0.00,   0.00, 1018.8,   67.7, -999.0
29-05-2022, 00:42:10,     59,    0.0,    6.6,   0.00,   0.00, 1018.8,   67.7, -999.0
29-05-2022, 00:42:20,     59,    0.0,    6.6,   0.00,   0.00, 1018.8,   67.7, -999.0
29-05-2022, 00:42:29,     59,    0.0,    6.6,   0.00,   0.00, 1018.8,   67.7, -999.0
29-05-2022, 00:42:40,     59,    0.0,    6.6,   0.00,   0.00, 1018.8,   67.7, -999.0
29-05-2022, 00:42:50,     59,    0.0,    6.4,   0.00,   0.00, 1018.8,   67.7, -999.0
29-05-2022, 00:42:59,     59,    0.0,    6.5,   0.00,   0.00, 1018.8,   67.6, -999.0
29-05-2022, 00:43:09,     59,    0.0,    6.5,   0.00,   0.00, 1018.9,   67.8, -999.0
29-05-2022, 00:43:19,     59,    0.0,    6.5,   0.00,   0.00, 1018.8,   67.8, -999.0
29-05-2022, 00:43:29,     59,    0.0,    6.5,   0.00,   0.00, 1018.9,   67.9, -999.0
29-05-2022, 00:43:39,     59,    0.0,    6.5,   0.00,   0.00, 1018.9,   67.7, -999.0
29-05-2022, 00:43:49,     59,    0.0,    6.5,   0.00,   0.00, 1018.9,   67.8, -999.0
29-05-2022, 00:43:59,     59,    0.0,    6.5,   0.00,   0.00, 1018.9,   67.8, -999.0
29-05-2022, 00:44:09,     59,    0.0,    6.5,   0.00,   0.00, 1018.9,   67.8, -999.0
29-05-2022, 00:44:19,     58,    0.0,    6.4,   0.00,   0.00, 1018.9,   67.9, -999.0
29-05-2022, 00:44:29,     59,    0.0,    6.4,   0.00,   0.00, 1018.9,   67.9, -999.0
29-05-2022, 00:44:39,     59,    0.0,    6.4,   0.00,   0.00, 1018.9,   67.9, -999.0
29-05-2022, 00:44:49,     59,    0.0,    6.4,   0.00,   0.00, 1018.9,   67.9, -999.0
29-05-2022, 00:44:59,     59,    0.0,    6.3,   0.00,   0.00, 1018.9,   67.9, -999.0
29-05-2022, 00:45:09,     59,    0.0,    6.4,   0.00,   0.00, 1018.9,   68.1, -999.0
29-05-2022, 00:45:19,     59,    0.0,    6.4,   0.00,   0.00, 1018.9,   68.2, -999.0
29-05-2022, 00:45:29,     59,    0.0,    6.3,   0.00,   0.00, 1018.9,   68.1, -999.0
29-05-2022, 00:45:38,     59,    0.0,    6.3,   0.00,   0.00, 1018.9,   68.1, -999.0
29-05-2022, 00:45:49,     59,    0.0,    6.3,   0.00,   0.00, 1018.9,   68.1, -999.0
29-05-2022, 00:45:58,     59,    0.0,    6.3,   0.00,   0.00, 1018.9,   68.2, -999.0
29-05-2022, 00:46:08,     59,    0.0,    6.4,   0.00,   0.00, 1018.9,   68.2, -999.0
29-05-2022, 00:46:18,     59,    0.0,    6.3,   0.00,   0.00, 1018.9,   68.2, -999.0
29-05-2022, 00:46:28,     59,    0.0,    6.3,   0.00,   0.00, 1018.9,   68.2, -999.0
29-05-2022, 00:46:38,     59,    0.0,    6.3,   0.00,   0.00, 1018.9,   68.3, -999.0